Change the Weather History Date:

Wednesday, August 6, 2014

  Actual Average Record
Temperature  
Mean Temperature 70 °F 72 °F  
Max Temperature 81 °F 88 °F 105 °F (1949)
Min Temperature 59 °F 56 °F 44 °F (1996)
Degree Days  
Heating Degree Days 0 1  
Month to date heating degree days 0 3  
Since 1 June heating degree days 205 164  
Since 1 July heating degree days 13 22  
Cooling Degree Days 5 7  
Month to date cooling degree days 41 45  
Year to date cooling degree days 243 327  
Since 1 June cooling degree days 235 319  
Growing Degree Days 19 (Base 50)    
Moisture  
Dew Point 59 °F    
Average Humidity 69    
Maximum Humidity 93    
Minimum Humidity 45    
Precipitation  
Precipitation T in 0.05 in 0.53 in (1989)
Month to date precipitation 0.27 0.26  
Year to date precipitation 13.38 9.79  
Sea Level Pressure  
Sea Level Pressure 30.01 in    
Wind  
Wind Speed 6 mph (WNW)    
Max Wind Speed 16 mph    
Max Gust Speed 22 mph    
Visibility 10 miles    
Events      
T = Trace of Precipitation, MM = Missing Value Source: NWS Daily Summary

Daily Weather History Graph

Daily Weather History Graph

Search for Another Location

Airport or City:

Trip Planner

Search our weather history database for the weather conditions in past years. The results will help you decide how hot, cold, wet, or windy it might be!

Date:

Astronomy

Aug. 06, 2014 Rise Set
Actual Time 5:55 AM MDT 8:20 PM MDT
Civil Twilight 5:22 AM MDT 8:52 PM MDT
Nautical Twilight 4:41 AM MDT 9:33 PM MDT
Astronomical Twilight 3:55 AM MDT 10:18 PM MDT
Moon 4:41 PM MDT (8/6) 1:31 AM MDT (8/6)
Length of Visible Light 15h 30m
Length of Day
14h 25m
Waxing Gibbous, 78% of the Moon is Illuminated
Aug 6
Waxing Gibbous
Aug 10
Full
Aug 17
Last Quarter
Aug 25
New
Sep 2
First Quarter

Hourly Weather History & Observations

Time (MDT) Temp. Dew Point Humidity Pressure Visibility Wind Dir Wind Speed Gust Speed Precip Events Conditions
12:53 AM 64.0 °F 61.0 °F 90% 29.93 in 10.0 mi WSW 6.9 mph - N/A   Overcast
1:53 AM 63.0 °F 59.0 °F 87% 29.91 in 10.0 mi WSW 12.7 mph - N/A   Overcast
2:53 AM 61.0 °F 57.9 °F 90% 29.91 in 10.0 mi Variable 3.5 mph - N/A   Clear
3:09 AM 62.6 °F 59.0 °F 88% 30.04 in 10.0 mi NW 6.9 mph - N/A   Scattered Clouds
3:50 AM 59.0 °F 57.2 °F 94% 30.03 in 10.0 mi SW 4.6 mph - N/A   Mostly Cloudy
3:53 AM 59.0 °F 57.9 °F 96% 29.92 in 10.0 mi WSW 4.6 mph - N/A   Mostly Cloudy
4:12 AM 60.8 °F 59.0 °F 94% 30.04 in 10.0 mi Calm Calm - N/A   Overcast
4:21 AM 62.6 °F 60.8 °F 94% 30.04 in 10.0 mi Calm Calm - N/A   Overcast
4:53 AM 63.0 °F 61.0 °F 93% 29.92 in 8.0 mi Calm Calm - N/A   Overcast
5:18 AM 62.6 °F 62.6 °F 100% 30.06 in 8.0 mi Calm Calm - N/A   Overcast
5:53 AM 64.0 °F 61.0 °F 90% 29.97 in 10.0 mi North 3.5 mph - N/A   Overcast
6:08 AM 62.6 °F 62.6 °F 100% 30.08 in 8.0 mi Calm Calm - N/A   Overcast
6:30 AM 64.4 °F 62.6 °F 94% 30.07 in 9.0 mi NNW 3.5 mph - N/A   Overcast
6:53 AM 64.0 °F 61.0 °F 90% 29.98 in 10.0 mi North 5.8 mph - N/A   Overcast
7:49 AM 64.4 °F 60.8 °F 88% 30.10 in 10.0 mi NW 3.5 mph - N/A   Overcast
7:53 AM 64.0 °F 62.1 °F 93% 30.00 in 10.0 mi NW 3.5 mph - N/A   Overcast
8:16 AM 64.4 °F 60.8 °F 88% 30.10 in 10.0 mi North 5.8 mph - N/A   Overcast
8:43 AM 64.4 °F 60.8 °F 88% 30.11 in 10.0 mi North 4.6 mph - N/A   Overcast
8:53 AM 64.0 °F 61.0 °F 90% 30.01 in 9.0 mi NNW 4.6 mph - N/A   Overcast
9:37 AM 66.2 °F 60.8 °F 83% 30.11 in 10.0 mi North 4.6 mph - 0.00 in   Overcast
9:48 AM 66.2 °F 60.8 °F 83% 30.11 in 10.0 mi North 4.6 mph - 0.00 in   Overcast
9:53 AM 66.0 °F 61.0 °F 84% 30.01 in 10.0 mi NNE 5.8 mph - 0.00 in   Overcast
10:18 AM 66.2 °F 60.8 °F 83% 30.11 in 10.0 mi North 3.5 mph - N/A   Overcast
10:46 AM 69.8 °F 60.8 °F 73% 30.12 in 10.0 mi WNW 3.5 mph - N/A   Overcast
11:01 AM 69.8 °F 60.8 °F 73% 30.11 in 10.0 mi Calm Calm - N/A   Mostly Cloudy
11:53 AM 71.1 °F 60.1 °F 68% 29.99 in 10.0 mi Variable 3.5 mph - N/A   Mostly Cloudy
12:53 PM 73.4 °F 57.2 °F 57% 30.09 in 10.0 mi Calm Calm - N/A   Mostly Cloudy
1:53 PM 73.9 °F 57.9 °F 57% 29.96 in 10.0 mi WSW 6.9 mph - N/A   Partly Cloudy
2:53 PM 78.1 °F 57.9 °F 50% 29.94 in 10.0 mi NNW 8.1 mph - N/A   Partly Cloudy
3:53 PM 79.0 °F 55.9 °F 45% 29.94 in 10.0 mi West 6.9 mph - N/A   Scattered Clouds
4:53 PM 73.9 °F 55.0 °F 52% 29.93 in 10.0 mi SW 12.7 mph - N/A   Partly Cloudy
5:53 PM 72.0 °F 55.9 °F 57% 29.94 in 10.0 mi WSW 15.0 mph - N/A   Clear
6:53 PM 72.0 °F 55.0 °F 55% 29.93 in 10.0 mi West 11.5 mph - N/A   Clear
7:53 PM 70.0 °F 53.1 °F 55% 29.94 in 10.0 mi West 9.2 mph - N/A   Clear
8:53 PM 69.1 °F 51.1 °F 53% 29.95 in 10.0 mi SW 11.5 mph - N/A   Overcast
9:53 PM 68.0 °F 51.1 °F 55% 29.96 in 10.0 mi WSW 8.1 mph - N/A   Partly Cloudy
10:53 PM 68.0 °F 52.0 °F 56% 29.95 in 10.0 mi SSW 5.8 mph - N/A   Partly Cloudy
11:53 PM 64.0 °F 55.0 °F 73% 29.96 in 10.0 mi South 4.6 mph - N/A   Overcast